Wind_Speed
35 35 34 34 34 33 33 33 33 33 33 33 33 33 33 33 34 34 33 33 34 34 34 34 34 34 34 34 35 35 35 35 35 33 33 33 33 33 33 32 32 31 31
35 35 35 34 34 34 34 33 33 33 33 33 33 33 33 33 34 34 33 33 33 33 34 34 34 34 34 33 34 34 34 34 35 34 33 32 33 32 30 30 30 29 29
35 35 35 34 34 34 34 34 33 33 33 33 33 33 33 34 34 34 34 33 33 33 33 33 33 33 33 33 33 33 33 33 34 34 32 31 31 30 29 28 28 28 28
36 35 35 35 35 34 34 34 33 34 34 33 33 32 32 33 33 34 33 32 32 32 32 32 32 32 33 33 33 33 33 33 33 32 31 30 28 27 26 25 26 27 27
35 35 35 35 35 34 34 34 34 34 34 34 33 32 32 32 32 33 32 32 32 31 31 31 31 32 32 32 32 32 32 32 30 29 28 28 27 26 25 25 25 25 25
35 35 35 35 34 34 34 34 34 34 34 34 33 32 32 32 31 31 31 31 31 31 30 30 30 31 31 31 32 32 31 30 29 28 26 25 24 24 24 24 24 24 23
34 34 34 35 34 33 34 34 34 34 34 34 33 32 31 31 30 30 31 31 31 30 30 30 30 30 30 31 31 30 29 29 27 26 24 22 22 23 23 24 23 22 23
34 34 34 34 34 33 33 33 33 33 32 32 32 31 31 30 30 30 30 30 30 30 30 30 30 30 30 30 29 28 27 26 25 23 22 21 22 22 23 23 22 22 24
34 33 33 33 33 32 32 32 31 31 30 30 30 30 30 30 30 29 29 29 29 29 29 29 29 29 29 28 26 25 24 24 23 22 22 21 21 21 22 22 22 22 24
34 33 32 32 32 32 31 30 30 29 29 28 28 28 28 28 28 28 29 29 29 29 29 28 27 27 26 25 24 23 23 22 22 22 22 22 22 22 21 20 21 22 24
33 33 33 32 31 30 30 29 29 28 28 28 27 27 27 27 27 27 27 27 27 27 27 26 25 24 23 23 22 22 22 22 22 22 22 22 21 20 20 20 21 23 24
33 33 32 32 31 30 30 29 28 28 27 27 27 27 26 26 26 26 26 25 24 24 24 24 24 23 23 23 23 21 21 22 21 21 20 20 19 19 20 21 22 24 25
34 33 32 32 31 30 30 29 28 27 27 27 26 26 25 25 24 24 24 24 23 23 23 23 23 23 23 23 22 21 20 20 20 19 19 19 19 20 21 22 24 25 26
33 33 32 32 31 30 30 29 28 27 26 26 25 25 25 24 23 23 23 23 24 24 24 24 24 23 23 22 21 19 19 19 19 19 19 19 20 21 22 23 24 25 26
32 32 32 31 30 29 29 28 28 27 26 26 25 25 25 25 24 24 23 23 24 25 25 24 23 23 22 20 19 19 19 19 19 20 20 21 21 22 23 24 24 25 26
30 30 30 30 30 29 28 27 27 26 26 26 25 24 24 24 24 24 24 24 24 24 23 22 21 20 19 19 19 20 20 20 20 20 20 20 21 22 22 24 25 26 26
29 29 29 29 29 29 28 27 27 26 26 26 25 25 24 24 24 24 24 24 24 23 21 20 19 19 19 19 19 19 19 19 19 19 20 20 21 22 23 24 25 26 27
28 28 28 28 29 29 28 27 27 27 26 26 25 25 24 23 24 24 24 23 22 21 20 20 20 19 19 19 19 19 18 19 19 19 20 21 22 23 24 25 26 27 27
28 28 27 26 27 27 27 27 27 27 27 27 26 25 25 24 24 23 22 22 21 21 21 20 20 19 19 19 19 19 19 19 19 20 21 21 22 23 25 26 27 28 28
27 27 27 26 25 25 26 26 26 27 27 27 26 26 25 24 23 23 22 22 22 21 21 20 19 19 19 19 19 20 20 20 20 21 21 22 23 24 25 26 27 27 27
27 27 26 26 25 25 25 25 26 26 26 26 26 25 25 24 24 23 23 22 21 21 20 19 19 19 19 19 20 20 20 20 21 21 22 23 24 25 26 26 27 27 27
27 27 27 26 25 25 25 25 25 25 25 25 25 25 24 24 23 23 22 21 21 21 20 19 19 19 20 20 21 21 21 21 22 22 23 24 25 25 26 26 27 27 28
26 26 26 26 26 26 26 25 25 25 25 25 25 25 25 25 24 24 23 22 21 21 20 20 20 20 21 21 21 21 22 22 23 23 24 24 25 26 26 27 28 28 28
25 25 26 26 26 25 25 25 25 25 25 26 26 26 27 26 26 25 24 23 22 22 21 21 21 22 22 22 22 22 22 23 23 23 24 24 25 26 27 28 28 28 27
24 24 25 25 25 24 24 24 24 24 25 25 26 27 27 27 27 26 25 25 24 23 22 22 22 23 23 23 23 23 23 23 23 24 25 26 27 28 28 28 27 27 25
22 23 23 24 23 23 23 24 24 24 24 25 26 26 27 27 27 26 26 26 25 24 24 24 23 24 24 24 23 23 23 23 23 24 26 27 28 27 27 26 25 24 23
Wind_Direction
252 254 256 258 260 263 266 269 272 274 274 275 277 279 280 280 281 283 283 285 286 288 290 292 294 297 298 300 301 301 302 302 303 303 301 300 299 298 298 299 299 299 297
252 254 257 258 260 263 265 268 271 273 274 275 276 279 280 280 280 282 283 285 287 288 290 291 293 295 297 299 301 303 303 303 303 302 301 300 300 298 298 297 298 299 299
252 254 256 258 260 263 264 267 270 272 273 275 276 278 280 281 281 281 282 284 286 288 291 292 293 295 296 298 301 303 303 304 304 303 300 299 300 299 298 297 299 301 301
252 254 256 258 260 262 264 266 269 271 272 274 275 278 280 282 281 281 281 283 285 288 291 293 293 294 296 298 300 301 303 304 304 303 300 299 299 302 301 299 299 302 302
252 254 256 258 260 262 264 266 268 270 271 272 275 277 280 282 282 281 281 282 285 288 291 293 293 294 296 298 300 301 303 303 303 303 302 300 299 301 300 300 301 301 303
253 255 257 258 260 262 264 266 268 269 270 272 274 276 279 281 281 281 280 282 285 288 290 291 293 294 295 298 301 302 303 304 304 303 302 300 300 300 301 301 301 303 304
253 255 257 258 261 262 263 266 267 268 270 272 274 275 277 279 281 282 281 281 284 287 289 290 292 293 294 297 299 301 303 306 305 305 303 300 300 299 300 301 302 305 309
254 255 257 258 260 261 264 266 267 269 270 271 272 274 276 278 279 280 282 282 283 286 288 289 291 293 294 295 298 300 303 304 304 305 304 303 302 301 302 303 303 306 310
254 255 256 258 259 261 264 265 266 268 270 271 272 274 276 277 277 278 280 282 283 285 288 290 292 293 294 295 297 299 301 302 304 305 304 305 306 304 306 307 307 309 311
253 255 256 257 259 262 263 264 266 267 268 270 272 274 276 277 277 278 280 282 283 284 287 289 292 295 294 293 295 297 299 301 304 306 306 306 307 306 307 307 307 310 312
253 255 257 258 260 261 262 264 266 268 269 270 271 274 275 276 277 279 281 283 284 284 285 287 290 292 292 292 294 297 299 301 302 303 304 306 308 309 309 309 310 311 312
253 255 256 257 259 260 261 263 265 267 269 270 270 271 274 275 277 279 281 283 284 285 285 286 288 289 290 293 293 294 296 299 301 302 303 306 309 311 312 313 313 313 312
252 254 255 256 257 259 260 262 264 266 267 269 269 270 272 274 276 277 278 280 282 284 285 285 286 287 289 290 290 290 292 295 299 301 303 305 307 309 311 312 314 315 314
253 253 254 255 256 258 260 262 262 264 265 266 267 268 270 272 274 277 279 279 282 283 283 284 283 283 286 287 286 286 289 292 296 299 301 304 307 309 311 312 313 315 317
253 253 252 252 255 257 258 260 261 262 262 264 266 268 270 272 274 278 281 283 283 283 283 283 282 281 282 283 285 287 289 292 296 298 300 302 305 307 309 311 314 315 316
251 250 251 253 254 256 258 259 260 260 261 263 265 267 269 272 274 276 279 282 284 282 282 283 283 281 277 279 284 288 290 292 296 298 300 303 306 308 310 312 314 315 316
248 248 251 253 255 257 258 258 259 259 260 262 265 267 269 273 276 278 278 280 282 280 277 279 280 280 277 277 281 285 288 292 295 297 301 304 306 310 312 314 314 315 316
247 249 251 253 254 255 255 255 256 258 260 262 264 266 268 272 276 279 280 279 279 277 276 276 278 280 278 278 280 284 288 293 294 298 301 304 306 310 312 314 315 315 315
246 248 250 252 254 255 255 255 255 257 259 262 264 267 269 272 274 276 277 278 277 276 275 275 276 277 277 278 279 283 287 292 295 298 302 305 306 309 312 314 316 316 316
245 248 250 252 254 255 256 256 255 257 259 261 262 265 267 270 271 272 275 277 276 275 273 273 275 277 277 277 279 282 286 290 294 298 301 304 306 308 311 314 316 317 317
246 248 250 252 254 255 256 256 257 258 259 260 262 263 265 267 268 270 274 276 274 272 270 270 273 276 277 278 279 282 285 289 293 297 300 303 305 308 310 313 316 317 317
245 248 250 251 252 254 256 258 259 259 259 260 261 262 264 265 266 269 273 275 274 271 269 270 273 275 277 277 279 280 284 288 292 295 299 302 305 308 310 313 314 315 317
246 248 249 250 251 254 256 258 258 259 260 261 261 262 262 262 264 268 270 271 272 269 268 269 272 275 277 276 277 280 283 287 291 295 299 302 305 307 310 311 312 313 314
247 247 248 249 251 253 256 258 259 260 260 261 261 262 261 261 264 266 267 268 269 269 267 268 271 274 276 276 278 280 282 286 290 294 298 302 306 307 308 309 310 312 313
247 245 246 248 251 254 257 258 260 260 261 263 262 262 261 261 263 265 266 267 268 269 266 268 271 273 275 276 278 280 283 286 291 294 299 303 306 307 307 308 309 311 313
248 245 245 248 251 253 256 258 260 261 264 265 264 262 262 261 263 264 265 266 267 267 266 268 270 273 274 276 277 279 281 285 291 295 299 302 306 307 306 307 308 310 311
Height
5687 5689 5690 5691 5692 5692 5693 5692 5692 5691 5690 5689 5688 5686 5684 5683 5681 5680 5678 5676 5674 5672 5670 5668 5665 5662 5658 5655 5651 5648 5644 5640 5637 5634 5631 5627 5624 5621 5618 5615 5612 5609 5606
5678 5680 5681 5682 5683 5683 5684 5683 5683 5682 5682 5681 5679 5678 5676 5675 5673 5671 5670 5668 5666 5664 5662 5659 5657 5654 5651 5648 5644 5641 5637 5633 5629 5627 5624 5620 5617 5614 5611 5608 5605 5603 5600
5669 5671 5672 5673 5674 5674 5675 5675 5674 5674 5673 5672 5671 5669 5668 5666 5664 5663 5661 5659 5658 5656 5654 5651 5649 5646 5644 5641 5637 5634 5630 5626 5622 5619 5616 5613 5610 5607 5605 5602 5599 5597 5594
5660 5662 5663 5664 5665 5665 5666 5666 5665 5665 5664 5663 5662 5661 5659 5657 5655 5654 5652 5651 5649 5648 5646 5643 5641 5639 5636 5633 5630 5627 5623 5619 5615 5612 5609 5606 5604 5601 5599 5597 5595 5592 5589
5651 5653 5654 5655 5656 5656 5657 5657 5656 5656 5655 5654 5653 5652 5650 5649 5647 5645 5644 5643 5642 5640 5638 5636 5634 5631 5629 5626 5623 5620 5616 5612 5609 5605 5603 5600 5598 5596 5594 5592 5589 5587 5585
5643 5644 5645 5646 5647 5647 5648 5648 5648 5647 5647 5646 5645 5643 5642 5640 5638 5637 5636 5635 5634 5633 5631 5629 5627 5624 5622 5619 5616 5613 5609 5606 5603 5600 5597 5595 5593 5591 5589 5587 5585 5583 5581
5634 5635 5636 5637 5638 5638 5639 5639 5639 5638 5638 5637 5636 5635 5634 5632 5630 5629 5628 5627 5626 5625 5624 5622 5620 5618 5615 5613 5610 5607 5603 5599 5596 5593 5591 5590 5588 5586 5584 5582 5580 5578 5576
5625 5626 5627 5628 5629 5630 5630 5630 5630 5630 5629 5629 5628 5627 5626 5625 5623 5622 5621 5620 5619 5618 5616 5615 5613 5611 5608 5606 5604 5601 5598 5594 5591 5589 5587 5585 5583 5581 5579 5578 5575 5574 5572
5616 5617 5618 5619 5620 5621 5621 5622 5621 5621 5621 5621 5620 5619 5618 5617 5615 5614 5613 5612 5611 5610 5609 5608 5606 5604 5602 5600 5598 5596 5593 5590 5587 5585 5583 5581 5579 5577 5575 5573 5571 5570 5568
5607 5608 5609 5611 5612 5613 5613 5613 5613 5613 5613 5613 5612 5611 5610 5609 5608 5607 5606 5605 5604 5603 5602 5601 5599 5597 5595 5594 5592 5590 5588 5586 5584 5581 5579 5577 5575 5573 5571 5569 5567 5565 5563
5598 5600 5601 5602 5603 5604 5605 5605 5605 5606 5605 5605 5605 5604 5603 5602 5601 5600 5599 5598 5597 5596 5595 5594 5593 5591 5590 5588 5587 5585 5583 5582 5580 5578 5576 5573 5571 5569 5567 5565 5563 5561 5558
5590 5591 5592 5594 5595 5596 5597 5597 5598 5598 5598 5598 5597 5597 5596 5595 5594 5594 5593 5592 5591 5590 5589 5588 5587 5586 5585 5583 5582 5580 5578 5577 5575 5573 5572 5570 5568 5566 5564 5562 5559 5556 5553
5581 5582 5584 5585 5587 5588 5589 5589 5590 5590 5590 5590 5590 5590 5589 5589 5588 5587 5586 5586 5585 5584 5584 5582 5581 5580 5579 5578 5577 5575 5573 5572 5571 5569 5568 5566 5565 5562 5560 5557 5554 5551 5548
5572 5574 5575 5577 5579 5580 5581 5582 5582 5583 5583 5583 5584 5584 5583 5583 5583 5582 5581 5580 5579 5578 5577 5576 5575 5574 5573 5572 5571 5570 5569 5568 5567 5565 5564 5562 5560 5558 5556 5553 5550 5547 5543
5563 5565 5567 5569 5570 5572 5573 5574 5575 5576 5576 5577 5577 5577 5577 5577 5577 5576 5575 5574 5573 5572 5571 5570 5569 5568 5568 5567 5566 5565 5564 5563 5562 5561 5559 5558 5556 5554 5551 5548 5545 5542 5539
5555 5556 5558 5560 5562 5564 5565 5566 5567 5568 5569 5570 5570 5571 5570 5570 5569 5569 5568 5568 5566 5565 5565 5564 5563 5563 5562 5562 5561 5561 5559 5558 5557 5556 5555 5553 5551 5549 5546 5544 5540 5537 5534
5546 5548 5550 5552 5554 5556 5557 5558 5560 5561 5562 5562 5563 5563 5564 5563 5563 5563 5562 5561 5560 5559 5559 5559 5558 5558 5557 5557 5556 5556 5555 5554 5553 5551 5550 5548 5546 5544 5542 5539 5535 5532 5528
5538 5541 5542 5544 5545 5547 5549 5550 5552 5553 5554 5555 5556 5556 5557 5557 5557 5556 5555 5555 5554 5554 5554 5553 5553 5552 5552 5551 5551 5551 5550 5549 5548 5546 5545 5543 5541 5539 5537 5534 5530 5527 5524
5531 5533 5535 5536 5538 5539 5541 5542 5544 5545 5547 5548 5549 5549 5550 5550 5550 5550 5549 5549 5549 5548 5548 5548 5547 5547 5546 5546 5546 5545 5545 5544 5543 5541 5540 5538 5536 5534 5532 5529 5525 5522 5518
5523 5525 5527 5529 5530 5532 5533 5535 5536 5538 5539 5540 5541 5542 5542 5543 5543 5543 5543 5543 5542 5542 5542 5542 5542 5541 5541 5541 5540 5540 5539 5539 5538 5536 5535 5533 5531 5529 5526 5523 5520 5517 5513
5515 5517 5519 5521 5523 5524 5526 5527 5529 5530 5531 5533 5534 5534 5535 5536 5537 5537 5537 5536 5536 5536 5536 5536 5536 5536 5535 5535 5535 5534 5534 5533 5532 5531 5530 5528 5526 5523 5521 5518 5515 5511 5508
5508 5510 5512 5514 5515 5517 5519 5520 5521 5523 5524 5525 5526 5527 5528 5529 5530 5530 5530 5530 5529 5529 5529 5529 5530 5530 5530 5530 5529 5529 5528 5528 5527 5526 5524 5522 5520 5518 5515 5512 5509 5506 5503
5500 5502 5504 5506 5508 5510 5511 5513 5514 5515 5517 5518 5519 5520 5521 5522 5522 5523 5523 5523 5523 5523 5523 5523 5523 5524 5523 5523 5523 5523 5523 5522 5521 5520 5518 5517 5514 5512 5509 5507 5504 5500 5497
5492 5494 5496 5498 5500 5502 5504 5505 5507 5508 5509 5510 5511 5512 5513 5514 5515 5515 5515 5516 5516 5516 5516 5516 5517 5517 5517 5517 5517 5517 5516 5516 5515 5514 5512 5510 5508 5506 5503 5500 5497 5494 5491
5485 5487 5489 5491 5493 5495 5497 5498 5499 5500 5501 5502 5503 5504 5505 5506 5507 5507 5508 5508 5509 5509 5509 5509 5510 5510 5510 5510 5510 5510 5510 5509 5508 5507 5506 5504 5502 5499 5496 5494 5491 5488 5485
5478 5480 5482 5484 5486 5488 5489 5491 5492 5493 5494 5495 5496 5496 5497 5498 5498 5499 5500 5500 5501 5502 5502 5503 5503 5503 5504 5504 5504 5503 5503 5502 5502 5500 5499 5497 5495 5492 5489 5487 5484 5482 5480